Change the Weather History Date:

Wednesday, December 12, 2012

  Actual Average Record
Temperature  
Mean Temperature 41 °F -  
Max Temperature 45 °F 45 °F 62 °F (2002)
Min Temperature 37 °F 34 °F 21 °F (2011)
Degree Days  
Heating Degree Days 24    
Moisture  
Dew Point 38 °F    
Average Humidity 88    
Maximum Humidity 100    
Minimum Humidity 71    
Precipitation  
Precipitation 0.00 in - - ()
Sea Level Pressure  
Sea Level Pressure 29.86 in    
Wind  
Wind Speed 6 mph (South)    
Max Wind Speed 10 mph    
Max Gust Speed 17 mph    
Visibility 10 miles    
Events      
Averages and records for this station are not official NWS values.
T = Trace of Precipitation, MM = Missing Value Source: NWS Daily Summary

Daily Weather History Graph

Daily Weather History Graph

Search for Another Location

Airport or City:

Trip Planner

Search our weather history database for the weather conditions in past years. The results will help you decide how hot, cold, wet, or windy it might be!

Date:

Astronomy

Dec. 12, 2012 Rise Set
Actual Time 7:47 AM PST 4:20 PM PST
Civil Twilight 7:12 AM PST 4:56 PM PST
Nautical Twilight 6:33 AM PST 5:35 PM PST
Astronomical Twilight 5:56 AM PST 6:12 PM PST
Moon 6:56 AM PST (12/12) 4:04 PM PST (12/12)
Length of Visible Light 9h 44m
Length of Day
8h 33m
Waning Crescent, 0% of the Moon is Illuminated
Dec 12
Waning Crescent
Dec 13
New
Dec 19
First Quarter
Dec 28
Full
Jan 4
Last Quarter

Hourly Weather History & Observations

Time (PST) Temp. Windchill Dew Point Humidity Pressure Visibility Wind Dir Wind Speed Gust Speed Precip Events Conditions
12:58 AM 39.9 °F 33.9 °F 38.7 °F 95% 29.65 in 10.0 mi South 9.2 mph - N/A   Clear
1:58 AM 40.1 °F 34.1 °F 38.3 °F 93% 29.66 in 10.0 mi South 9.2 mph - N/A   Partly Cloudy
2:58 AM 40.5 °F 34.6 °F 37.6 °F 89% 29.68 in 10.0 mi South 9.2 mph - N/A   Mostly Cloudy
3:58 AM 39.9 °F 35.8 °F 38.1 °F 93% 29.70 in 10.0 mi South 5.8 mph - N/A   Overcast
4:58 AM 39.6 °F 33.0 °F 37.4 °F 92% 29.70 in 10.0 mi SSE 10.4 mph - N/A   Mostly Cloudy
5:58 AM 39.7 °F 34.9 °F 37.0 °F 90% 29.73 in 10.0 mi SSE 6.9 mph - N/A   Scattered Clouds
6:58 AM 39.9 °F 33.9 °F 37.8 °F 92% 29.74 in 10.0 mi SSE 9.2 mph - N/A   Partly Cloudy
7:58 AM 39.9 °F 34.5 °F 37.0 °F 89% 29.77 in 10.0 mi South 8.1 mph - N/A   Overcast
8:38 AM 39.2 °F 37.0 °F 37.4 °F 93% 29.76 in 10.0 mi SE 3.5 mph - N/A   Overcast
8:43 AM 39.2 °F - 37.4 °F 93% 29.77 in 10.0 mi SE 2.3 mph - N/A   Overcast
8:58 AM 40.6 °F 38.6 °F 37.6 °F 89% 29.80 in 10.0 mi ESE 3.5 mph - N/A   Overcast
9:03 AM 41.0 °F - 37.4 °F 87% 29.78 in 10.0 mi SE 2.3 mph - N/A   Overcast
9:53 AM 42.8 °F 38.0 °F 37.4 °F 81% 29.80 in 10.0 mi South 8.1 mph - N/A   Overcast
9:58 AM 42.4 °F 38.8 °F 37.4 °F 82% 29.83 in 10.0 mi South 5.8 mph - N/A   Overcast
10:18 AM 42.8 °F 39.3 °F 37.4 °F 81% 29.81 in 10.0 mi South 5.8 mph - N/A   Overcast
10:43 AM 42.8 °F 38.0 °F 37.4 °F 81% 29.82 in 10.0 mi SSW 8.1 mph - N/A   Overcast
10:58 AM 43.9 °F 38.8 °F 37.8 °F 79% 29.84 in 10.0 mi SSW 9.2 mph 17.3 mph N/A   Overcast
11:58 AM 43.3 °F 39.9 °F 37.0 °F 78% 29.86 in 10.0 mi SSW 5.8 mph - N/A   Overcast
12:58 PM 44.1 °F 42.5 °F 37.0 °F 76% 29.86 in 10.0 mi SW 3.5 mph - N/A   Overcast
1:08 PM 44.6 °F 41.4 °F 37.4 °F 76% 29.84 in 10.0 mi SW 5.8 mph - N/A   Overcast
1:23 PM 44.6 °F 41.4 °F 37.4 °F 76% 29.85 in 10.0 mi WNW 5.8 mph - N/A   Overcast
1:58 PM 45.1 °F 42.8 °F 36.3 °F 71% 29.88 in 10.0 mi WSW 4.6 mph - N/A   Overcast
2:58 PM 44.6 °F 42.2 °F 36.9 °F 74% 29.90 in 10.0 mi NW 4.6 mph - N/A   Overcast
3:23 PM 42.8 °F 40.1 °F 37.4 °F 81% 29.89 in 10.0 mi WNW 4.6 mph - N/A   Mostly Cloudy
3:58 PM 42.6 °F 40.9 °F 37.8 °F 83% 29.92 in 10.0 mi West 3.5 mph - N/A   Scattered Clouds
4:58 PM 40.3 °F - 37.2 °F 89% 29.94 in 10.0 mi Calm Calm - N/A   Clear
5:33 PM 37.4 °F - 35.6 °F 93% 29.92 in 10.0 mi Variable 2.3 mph - N/A   Mostly Cloudy
5:58 PM 38.8 °F - 37.4 °F 95% 29.95 in 10.0 mi East 1.2 mph - N/A   Overcast
6:58 PM 39.4 °F 37.2 °F 37.8 °F 94% 29.97 in 10.0 mi Variable 3.5 mph - N/A   Overcast
7:03 PM 39.2 °F 37.0 °F 37.4 °F 93% 29.95 in 10.0 mi Variable 3.5 mph - N/A   Overcast
7:58 PM 39.7 °F - 38.1 °F 94% 29.99 in 10.0 mi Calm Calm - N/A   Overcast
8:58 PM 40.5 °F - 38.5 °F 93% 30.01 in 10.0 mi East 2.3 mph - N/A   Overcast
9:58 PM 39.6 °F - 38.8 °F 97% 30.02 in 10.0 mi SE 2.3 mph - N/A   Overcast
10:58 PM 39.6 °F - 38.8 °F 97% 30.04 in 10.0 mi Calm Calm - N/A   Overcast
11:18 PM 39.2 °F - 39.2 °F 100% 30.01 in 10.0 mi SE 2.3 mph - N/A   Overcast
11:36 PM 39.2 °F - 39.2 °F 100% 30.02 in 10.0 mi SSE 2.3 mph - N/A   Overcast
11:58 PM 39.0 °F - 38.3 °F 97% 30.04 in 10.0 mi SE 2.3 mph - N/A   Overcast